Ely, NV

11:12 AM PST on February 26, 2017 (GMT -0800)
Ely

Weather History for KELY - March, 2013

Change the Weather History Date:

Saturday, March 23, 2013

  Actual Average Record
Temperature  
Mean Temperature 27 °F 38 °F  
Max Temperature 39 °F 52 °F 71 °F (2004)
Min Temperature 14 °F 24 °F -8 °F (1952)
Degree Days  
Heating Degree Days 38 27  
Month to date heating degree days 590 678  
Since 1 July heating degree days 5809 6015  
Cooling Degree Days 0 0  
Month to date cooling degree days 0 0  
Year to date cooling degree days 0 0  
Moisture  
Dew Point 3 °F    
Average Humidity 43    
Maximum Humidity 68    
Minimum Humidity 17    
Precipitation  
Precipitation T in 0.03 in 0.33 in (2005)
Month to date precipitation 0.24 0.68  
Year to date precipitation 1.69 2.13  
Snow  
Snow T in 0.30 in 4.70 in (1995)
Month to date snowfall 3.1 6.2  
Since 1 July snowfall 58.5 41.1  
Snow Depth 0.00 in    
Sea Level Pressure  
Sea Level Pressure 30.14 in    
Wind  
Wind Speed 6 mph (North)    
Max Wind Speed 18 mph    
Max Gust Speed 22 mph    
Visibility 10 miles    
Events Snow    
T = Trace of Precipitation, MM = Missing Value Source: NWS Daily Summary

Daily Weather History Graph

Daily Weather History Graph

Search for Another Location

Airport or City:

Trip Planner

Search our weather history database for the weather conditions in past years. The results will help you decide how hot, cold, wet, or windy it might be!

Date:

Astronomy

Mar. 23, 2013 Rise Set
Actual Time 6:37 AM PDT 6:54 PM PDT
Civil Twilight 6:10 AM PDT 7:21 PM PDT
Nautical Twilight 5:39 AM PDT 7:52 PM PDT
Astronomical Twilight 5:07 AM PDT 8:25 PM PDT
Moon 3:26 PM PDT (3/23) 4:15 AM PDT (3/23)
Length of Visible Light 13h 10m
Length of Day
12h 17m
Waxing Gibbous, 86% of the Moon is Illuminated
Mar 23
Waxing Gibbous
Mar 27
Full
Apr 2
Last Quarter
Apr 10
New
Apr 18
First Quarter

Hourly Weather History & Observations

Time (PDT) Temp. Windchill Dew Point Humidity Pressure Visibility Wind Dir Wind Speed Gust Speed Precip Events Conditions
12:53 AM 21.0 °F 8.1 °F 12.9 °F 71% 30.07 in 10.0 mi North 13.8 mph 20.7 mph N/A   Overcast
1:29 AM 19.4 °F 9.5 °F 15.8 °F 86% 30.07 in 4.0 mi NNW 8.1 mph - 0.00 in Snow Light Snow
1:53 AM 19.9 °F 9.3 °F 15.1 °F 81% 30.10 in 5.0 mi North 9.2 mph - 0.00 in Snow Light Snow
2:09 AM 19.4 °F 8.6 °F 12.2 °F 74% 30.07 in 9.0 mi North 9.2 mph - 0.00 in Snow Light Snow
2:53 AM 19.9 °F 9.3 °F 6.1 °F 55% 30.09 in 10.0 mi NNW 9.2 mph - 0.00 in   Overcast
3:53 AM 18.0 °F 9.8 °F 7.0 °F 62% 30.09 in 10.0 mi WNW 5.8 mph - N/A   Mostly Cloudy
4:53 AM 15.1 °F 3.3 °F 6.1 °F 68% 30.14 in 10.0 mi WNW 9.2 mph - N/A   Partly Cloudy
5:53 AM 15.1 °F 7.7 °F 6.1 °F 68% 30.18 in 10.0 mi North 4.6 mph - N/A   Clear
6:53 AM 16.0 °F 5.3 °F 5.0 °F 62% 30.22 in 10.0 mi NNW 8.1 mph - N/A   Clear
7:53 AM 19.0 °F 12.3 °F 6.1 °F 57% 30.23 in 10.0 mi North 4.6 mph - N/A   Clear
8:53 AM 21.0 °F 16.2 °F 3.9 °F 48% 30.24 in 10.0 mi Variable 3.5 mph - N/A   Partly Cloudy
9:53 AM 25.0 °F 15.5 °F 3.0 °F 39% 30.22 in 10.0 mi NW 9.2 mph - 0.00 in   Clear
10:53 AM 27.0 °F 20.5 °F -2.0 °F 29% 30.22 in 10.0 mi Variable 5.8 mph 20.7 mph 0.00 in   Clear
11:53 AM 28.9 °F 21.1 °F -2.0 °F 26% 30.21 in 10.0 mi NE 8.1 mph - 0.00 in   Clear
12:53 PM 30.9 °F 23.5 °F -2.9 °F 23% 30.18 in 10.0 mi WNW 8.1 mph - 0.00 in   Clear
1:53 PM 33.1 °F 28.7 °F -2.9 °F 21% 30.14 in 10.0 mi ENE 4.6 mph - N/A   Clear
2:53 PM 34.0 °F 28.8 °F -4.0 °F 20% 30.13 in 10.0 mi East 5.8 mph - N/A   Scattered Clouds
3:53 PM 37.9 °F 35.5 °F -4.0 °F 17% 30.09 in 10.0 mi Variable 3.5 mph - N/A   Mostly Cloudy
4:53 PM 36.0 °F - -4.0 °F 18% 30.11 in 10.0 mi Calm Calm - N/A   Mostly Cloudy
5:53 PM 36.0 °F 32.1 °F -2.0 °F 20% 30.12 in 10.0 mi NNW 4.6 mph - N/A   Overcast
6:53 PM 35.1 °F 31.0 °F -2.9 °F 20% 30.12 in 10.0 mi North 4.6 mph - N/A   Overcast
7:53 PM 34.0 °F - -0.9 °F 23% 30.12 in 10.0 mi Calm Calm - N/A   Overcast
8:53 PM 33.1 °F - 1.9 °F 27% 30.14 in 10.0 mi Calm Calm - N/A   Overcast
9:53 PM 33.1 °F 23.0 °F -0.0 °F 24% 30.14 in 10.0 mi North 15.0 mph - N/A   Overcast
10:53 PM 30.9 °F 24.3 °F 3.0 °F 31% 30.14 in 10.0 mi North 6.9 mph - N/A   Overcast
11:53 PM 28.0 °F 24.2 °F 1.9 °F 33% 30.14 in 10.0 mi NNW 3.5 mph - N/A   Overcast